QPF
0.01 0.01 0.01 0.00 0.00 0.00 0.00 0.00 0.00 0.00 0.00 0.00 0.00 0.00 0.01 0.02 0.02 0.02 0.02 0.02 0.02 0.02 0.03 0.04 0.03 0.03 0.06 0.06 0.05 0.04 0.03 0.03 0.03 0.02 0.01 0.00 0.00 0.00 0.00 0.00 0.00 0.00 0.00
0.01 0.01 0.02 0.02 0.02 0.01 0.00 0.00 0.00 0.01 0.01 0.01 0.00 0.00 0.01 0.01 0.01 0.01 0.01 0.02 0.02 0.02 0.02 0.03 0.04 0.03 0.03 0.04 0.03 0.03 0.03 0.03 0.02 0.01 0.00 0.00 0.00 0.01 0.00 0.00 0.00 0.00 0.00
0.01 0.02 0.03 0.03 0.02 0.03 0.02 0.01 0.00 0.01 0.01 0.00 0.00 0.01 0.01 0.01 0.01 0.01 0.01 0.01 0.01 0.01 0.01 0.02 0.04 0.05 0.05 0.03 0.02 0.01 0.01 0.01 0.01 0.00 0.00 0.00 0.00 0.01 0.00 0.00 0.00 0.00 0.00
0.02 0.03 0.05 0.05 0.02 0.02 0.02 0.01 0.01 0.01 0.01 0.01 0.01 0.01 0.01 0.01 0.01 0.01 0.01 0.02 0.02 0.01 0.01 0.01 0.02 0.04 0.07 0.05 0.02 0.01 0.01 0.01 0.01 0.01 0.00 0.00 0.01 0.01 0.00 0.00 0.00 0.00 0.00
0.01 0.02 0.04 0.05 0.03 0.02 0.01 0.01 0.01 0.01 0.01 0.01 0.01 0.01 0.01 0.02 0.01 0.01 0.02 0.01 0.01 0.01 0.01 0.01 0.01 0.02 0.05 0.07 0.03 0.02 0.02 0.01 0.01 0.01 0.01 0.00 0.00 0.00 0.00 0.00 0.00 0.00 0.00
0.01 0.01 0.03 0.04 0.04 0.02 0.01 0.01 0.01 0.02 0.01 0.01 0.02 0.02 0.01 0.01 0.01 0.01 0.02 0.01 0.01 0.01 0.00 0.00 0.01 0.01 0.02 0.03 0.03 0.03 0.03 0.02 0.01 0.01 0.01 0.01 0.01 0.01 0.01 0.01 0.01 0.01 0.01
0.01 0.01 0.03 0.04 0.04 0.04 0.04 0.03 0.03 0.02 0.02 0.02 0.02 0.02 0.01 0.01 0.01 0.01 0.01 0.01 0.01 0.01 0.00 0.00 0.00 0.01 0.01 0.02 0.02 0.02 0.02 0.02 0.01 0.01 0.01 0.01 0.01 0.01 0.01 0.01 0.01 0.01 0.01
0.01 0.01 0.02 0.03 0.04 0.04 0.04 0.03 0.02 0.02 0.01 0.01 0.02 0.02 0.02 0.02 0.01 0.01 0.01 0.01 0.00 0.01 0.01 0.01 0.01 0.01 0.01 0.02 0.02 0.01 0.01 0.01 0.01 0.01 0.01 0.01 0.00 0.00 0.01 0.01 0.01 0.01 0.01
0.00 0.01 0.01 0.03 0.03 0.03 0.02 0.01 0.01 0.01 0.01 0.01 0.02 0.01 0.01 0.02 0.01 0.01 0.01 0.01 0.01 0.01 0.01 0.01 0.01 0.01 0.01 0.01 0.01 0.01 0.01 0.01 0.01 0.01 0.01 0.01 0.01 0.01 0.01 0.01 0.01 0.01 0.01
0.00 0.00 0.01 0.01 0.02 0.03 0.02 0.02 0.02 0.01 0.01 0.01 0.02 0.01 0.01 0.02 0.02 0.01 0.01 0.01 0.01 0.01 0.01 0.01 0.01 0.01 0.01 0.01 0.01 0.01 0.02 0.01 0.01 0.01 0.01 0.01 0.01 0.01 0.01 0.01 0.02 0.02 0.02
0.00 0.00 0.00 0.01 0.01 0.03 0.04 0.03 0.02 0.01 0.01 0.02 0.01 0.01 0.01 0.01 0.02 0.02 0.01 0.00 0.00 0.00 0.00 0.01 0.01 0.01 0.01 0.01 0.01 0.01 0.01 0.01 0.01 0.02 0.02 0.01 0.01 0.02 0.02 0.02 0.02 0.02 0.03
0.00 0.00 0.00 0.00 0.01 0.02 0.03 0.03 0.02 0.01 0.01 0.01 0.01 0.01 0.01 0.01 0.01 0.01 0.01 0.00 0.00 0.00 0.00 0.01 0.01 0.01 0.00 0.01 0.01 0.01 0.01 0.01 0.02 0.02 0.02 0.02 0.02 0.02 0.02 0.03 0.03 0.03 0.03
0.00 0.00 0.00 0.00 0.00 0.01 0.02 0.02 0.02 0.01 0.01 0.01 0.01 0.01 0.01 0.01 0.01 0.00 0.00 0.00 0.00 0.00 0.00 0.01 0.01 0.01 0.01 0.00 0.01 0.01 0.01 0.01 0.02 0.02 0.02 0.02 0.02 0.03 0.03 0.04 0.05 0.04 0.04
0.00 0.00 0.00 0.00 0.00 0.01 0.02 0.02 0.01 0.01 0.01 0.01 0.02 0.02 0.01 0.01 0.01 0.01 0.00 0.00 0.01 0.01 0.01 0.01 0.01 0.01 0.02 0.01 0.00 0.00 0.01 0.01 0.01 0.02 0.02 0.02 0.02 0.03 0.03 0.04 0.04 0.04 0.04
0.00 0.00 0.00 0.00 0.00 0.00 0.02 0.03 0.01 0.01 0.01 0.01 0.02 0.03 0.02 0.02 0.01 0.01 0.00 0.01 0.01 0.02 0.02 0.01 0.01 0.01 0.02 0.01 0.00 0.00 0.00 0.00 0.01 0.01 0.02 0.02 0.02 0.02 0.03 0.03 0.04 0.04 0.04
0.00 0.00 0.00 0.00 0.00 0.00 0.01 0.02 0.02 0.01 0.01 0.02 0.02 0.02 0.02 0.03 0.02 0.01 0.01 0.01 0.01 0.01 0.01 0.00 0.01 0.01 0.01 0.01 0.00 0.00 0.00 0.00 0.01 0.01 0.01 0.02 0.02 0.03 0.03 0.04 0.04 0.03 0.03
0.00 0.00 0.00 0.00 0.00 0.00 0.00 0.01 0.02 0.01 0.01 0.01 0.01 0.02 0.02 0.02 0.03 0.03 0.02 0.02 0.01 0.01 0.01 0.01 0.01 0.02 0.01 0.01 0.01 0.01 0.01 0.01 0.01 0.01 0.01 0.02 0.02 0.03 0.03 0.04 0.04 0.04 0.03
0.00 0.00 0.00 0.00 0.00 0.01 0.00 0.00 0.01 0.01 0.01 0.01 0.01 0.01 0.01 0.02 0.02 0.03 0.03 0.02 0.02 0.01 0.01 0.01 0.02 0.02 0.02 0.01 0.01 0.01 0.01 0.01 0.01 0.01 0.01 0.02 0.02 0.03 0.03 0.03 0.03 0.04 0.04
0.00 0.00 0.00 0.00 0.00 0.00 0.00 0.00 0.00 0.00 0.01 0.00 0.00 0.01 0.01 0.02 0.03 0.03 0.03 0.03 0.02 0.01 0.01 0.01 0.01 0.02 0.02 0.02 0.01 0.01 0.01 0.01 0.01 0.01 0.01 0.01 0.02 0.03 0.03 0.03 0.03 0.04 0.04
0.00 0.00 0.00 0.00 0.00 0.00 0.00 0.00 0.00 0.00 0.00 0.00 0.00 0.01 0.01 0.01 0.02 0.04 0.04 0.03 0.02 0.02 0.02 0.02 0.02 0.02 0.02 0.02 0.01 0.01 0.01 0.01 0.01 0.01 0.01 0.01 0.01 0.02 0.02 0.03 0.03 0.03 0.04
0.00 0.01 0.01 0.00 0.00 0.00 0.00 0.00 0.00 0.00 0.00 0.00 0.00 0.00 0.00 0.01 0.01 0.02 0.03 0.03 0.02 0.02 0.02 0.03 0.04 0.04 0.04 0.03 0.03 0.02 0.02 0.02 0.02 0.01 0.01 0.01 0.01 0.02 0.02 0.02 0.02 0.02 0.03
0.00 0.01 0.01 0.00 0.01 0.01 0.01 0.01 0.00 0.00 0.00 0.01 0.01 0.01 0.01 0.01 0.01 0.01 0.02 0.02 0.02 0.02 0.03 0.03 0.04 0.04 0.03 0.03 0.03 0.02 0.02 0.02 0.02 0.02 0.02 0.01 0.01 0.02 0.02 0.02 0.02 0.02 0.02
0.01 0.01 0.01 0.01 0.01 0.01 0.01 0.01 0.01 0.01 0.01 0.01 0.01 0.01 0.01 0.01 0.02 0.02 0.01 0.01 0.01 0.01 0.01 0.01 0.02 0.03 0.03 0.03 0.02 0.02 0.01 0.01 0.01 0.01 0.01 0.02 0.01 0.01 0.02 0.02 0.02 0.02 0.02
0.01 0.01 0.01 0.01 0.01 0.01 0.01 0.01 0.01 0.01 0.01 0.01 0.01 0.01 0.01 0.01 0.02 0.02 0.02 0.02 0.02 0.02 0.02 0.01 0.01 0.01 0.02 0.03 0.03 0.03 0.02 0.02 0.01 0.01 0.01 0.01 0.02 0.02 0.02 0.02 0.02 0.02 0.02
0.01 0.01 0.01 0.01 0.01 0.01 0.01 0.01 0.01 0.01 0.01 0.01 0.01 0.01 0.01 0.01 0.01 0.02 0.01 0.01 0.01 0.02 0.02 0.02 0.02 0.02 0.02 0.03 0.02 0.02 0.02 0.02 0.01 0.01 0.01 0.01 0.01 0.02 0.02 0.02 0.02 0.02 0.03
0.01 0.01 0.01 0.01 0.01 0.01 0.02 0.02 0.02 0.01 0.01 0.01 0.01 0.01 0.01 0.01 0.01 0.01 0.01 0.01 0.01 0.01 0.02 0.02 0.02 0.02 0.02 0.01 0.01 0.02 0.02 0.01 0.01 0.01 0.01 0.01 0.01 0.01 0.01 0.02 0.02 0.02 0.02
MSLP
1020.52 1020.51 1020.52 1020.55 1020.57 1020.60 1020.62 1020.64 1020.65 1020.65 1020.65 1020.64 1020.64 1020.63 1020.63 1020.64 1020.66 1020.68 1020.72 1020.78 1020.84 1020.91 1020.98 1021.05 1021.11 1021.18 1021.25 1021.34 1021.49 1021.69 1021.98 1022.35 1022.80 1023.32 1023.88 1024.45 1024.99 1025.46 1025.84 1026.13 1026.31 1026.39 1026.40
1020.36 1020.36 1020.37 1020.39 1020.42 1020.46 1020.51 1020.56 1020.62 1020.68 1020.73 1020.78 1020.81 1020.83 1020.84 1020.85 1020.85 1020.86 1020.89 1020.94 1021.01 1021.09 1021.18 1021.27 1021.35 1021.43 1021.51 1021.60 1021.74 1021.92 1022.18 1022.52 1022.95 1023.44 1023.97 1024.52 1025.05 1025.53 1025.92 1026.23 1026.45 1026.59 1026.66
1020.17 1020.17 1020.19 1020.20 1020.23 1020.28 1020.35 1020.44 1020.54 1020.65 1020.76 1020.86 1020.94 1020.99 1021.03 1021.04 1021.05 1021.06 1021.08 1021.13 1021.20 1021.30 1021.41 1021.52 1021.64 1021.75 1021.85 1021.97 1022.11 1022.29 1022.53 1022.84 1023.23 1023.67 1024.15 1024.65 1025.13 1025.57 1025.94 1026.24 1026.47 1026.64 1026.76
1019.97 1019.98 1019.99 1020.00 1020.03 1020.07 1020.15 1020.25 1020.39 1020.55 1020.71 1020.86 1020.99 1021.09 1021.16 1021.20 1021.22 1021.24 1021.27 1021.32 1021.40 1021.52 1021.65 1021.80 1021.96 1022.11 1022.26 1022.41 1022.58 1022.77 1023.00 1023.28 1023.62 1024.00 1024.42 1024.84 1025.25 1025.62 1025.94 1026.21 1026.43 1026.61 1026.76
1019.82 1019.82 1019.81 1019.81 1019.81 1019.84 1019.91 1020.02 1020.18 1020.36 1020.57 1020.77 1020.94 1021.09 1021.20 1021.27 1021.32 1021.35 1021.40 1021.47 1021.58 1021.72 1021.90 1022.09 1022.30 1022.50 1022.70 1022.90 1023.09 1023.30 1023.53 1023.79 1024.08 1024.40 1024.74 1025.09 1025.41 1025.71 1025.96 1026.19 1026.38 1026.55 1026.72
1019.75 1019.73 1019.69 1019.65 1019.62 1019.61 1019.66 1019.76 1019.91 1020.11 1020.34 1020.57 1020.79 1020.97 1021.12 1021.23 1021.31 1021.38 1021.46 1021.56 1021.70 1021.88 1022.10 1022.35 1022.61 1022.87 1023.13 1023.38 1023.62 1023.85 1024.08 1024.33 1024.59 1024.85 1025.13 1025.39 1025.64 1025.87 1026.06 1026.23 1026.39 1026.54 1026.72
1019.81 1019.74 1019.65 1019.55 1019.47 1019.42 1019.43 1019.50 1019.63 1019.82 1020.05 1020.29 1020.53 1020.75 1020.92 1021.07 1021.18 1021.29 1021.40 1021.55 1021.74 1021.97 1022.24 1022.55 1022.87 1023.20 1023.52 1023.82 1024.11 1024.37 1024.61 1024.85 1025.09 1025.32 1025.54 1025.76 1025.95 1026.12 1026.27 1026.39 1026.52 1026.65 1026.80
1020.00 1019.86 1019.71 1019.55 1019.40 1019.29 1019.24 1019.27 1019.36 1019.52 1019.73 1019.97 1020.21 1020.43 1020.63 1020.80 1020.95 1021.09 1021.25 1021.44 1021.68 1021.97 1022.31 1022.67 1023.07 1023.46 1023.84 1024.19 1024.52 1024.82 1025.08 1025.33 1025.56 1025.78 1025.98 1026.16 1026.32 1026.47 1026.58 1026.69 1026.79 1026.89 1027.02
1020.30 1020.09 1019.87 1019.64 1019.42 1019.25 1019.14 1019.11 1019.15 1019.27 1019.44 1019.65 1019.87 1020.08 1020.28 1020.46 1020.64 1020.82 1021.02 1021.26 1021.55 1021.90 1022.30 1022.73 1023.19 1023.64 1024.08 1024.48 1024.85 1025.18 1025.47 1025.73 1025.97 1026.19 1026.39 1026.58 1026.74 1026.88 1026.99 1027.09 1027.18 1027.27 1027.37
1020.69 1020.42 1020.12 1019.82 1019.54 1019.31 1019.13 1019.04 1019.02 1019.08 1019.20 1019.36 1019.55 1019.74 1019.93 1020.11 1020.30 1020.51 1020.75 1021.04 1021.38 1021.79 1022.24 1022.73 1023.24 1023.75 1024.24 1024.69 1025.09 1025.45 1025.77 1026.05 1026.31 1026.54 1026.76 1026.96 1027.14 1027.30 1027.43 1027.55 1027.64 1027.72 1027.80
1021.14 1020.81 1020.45 1020.10 1019.76 1019.47 1019.23 1019.07 1019.00 1018.99 1019.05 1019.16 1019.30 1019.45 1019.61 1019.79 1019.98 1020.20 1020.47 1020.79 1021.18 1021.64 1022.14 1022.69 1023.24 1023.80 1024.32 1024.80 1025.24 1025.62 1025.96 1026.26 1026.54 1026.80 1027.04 1027.27 1027.48 1027.67 1027.84 1027.98 1028.09 1028.18 1028.25
1021.62 1021.25 1020.85 1020.45 1020.06 1019.71 1019.43 1019.21 1019.07 1019.00 1018.99 1019.03 1019.11 1019.22 1019.35 1019.50 1019.68 1019.91 1020.19 1020.55 1020.97 1021.46 1022.01 1022.59 1023.19 1023.77 1024.32 1024.83 1025.29 1025.69 1026.04 1026.36 1026.66 1026.94 1027.20 1027.46 1027.71 1027.94 1028.14 1028.32 1028.46 1028.56 1028.64
1022.11 1021.71 1021.29 1020.85 1020.43 1020.03 1019.69 1019.42 1019.21 1019.07 1019.00 1018.97 1018.99 1019.04 1019.12 1019.24 1019.40 1019.62 1019.91 1020.28 1020.73 1021.24 1021.82 1022.43 1023.05 1023.66 1024.24 1024.76 1025.23 1025.65 1026.02 1026.35 1026.65 1026.94 1027.23 1027.51 1027.79 1028.05 1028.29 1028.51 1028.68 1028.82 1028.92
1022.61 1022.20 1021.75 1021.29 1020.83 1020.39 1020.00 1019.67 1019.39 1019.19 1019.03 1018.93 1018.88 1018.87 1018.90 1018.98 1019.11 1019.32 1019.60 1019.97 1020.42 1020.95 1021.54 1022.17 1022.81 1023.44 1024.03 1024.58 1025.06 1025.49 1025.86 1026.20 1026.51 1026.81 1027.11 1027.41 1027.70 1027.99 1028.27 1028.52 1028.75 1028.93 1029.07
1023.09 1022.67 1022.21 1021.72 1021.23 1020.75 1020.31 1019.91 1019.57 1019.29 1019.06 1018.88 1018.76 1018.68 1018.65 1018.68 1018.77 1018.95 1019.21 1019.57 1020.02 1020.55 1021.14 1021.78 1022.44 1023.08 1023.69 1024.25 1024.75 1025.19 1025.58 1025.92 1026.24 1026.54 1026.84 1027.15 1027.46 1027.78 1028.09 1028.38 1028.64 1028.88 1029.07
1023.52 1023.11 1022.64 1022.13 1021.60 1021.08 1020.58 1020.12 1019.71 1019.35 1019.04 1018.79 1018.59 1018.43 1018.34 1018.31 1018.36 1018.49 1018.72 1019.05 1019.49 1020.01 1020.60 1021.24 1021.90 1022.56 1023.19 1023.77 1024.29 1024.75 1025.15 1025.51 1025.84 1026.15 1026.46 1026.77 1027.09 1027.43 1027.76 1028.10 1028.41 1028.70 1028.96
1023.89 1023.47 1022.99 1022.46 1021.90 1021.34 1020.79 1020.28 1019.80 1019.36 1018.98 1018.64 1018.36 1018.14 1017.98 1017.88 1017.87 1017.95 1018.14 1018.43 1018.84 1019.34 1019.91 1020.55 1021.22 1021.89 1022.54 1023.14 1023.69 1024.17 1024.60 1024.98 1025.32 1025.64 1025.96 1026.29 1026.63 1026.98 1027.35 1027.72 1028.09 1028.44 1028.77
1024.14 1023.72 1023.23 1022.69 1022.11 1021.52 1020.93 1020.36 1019.83 1019.33 1018.87 1018.47 1018.11 1017.81 1017.58 1017.42 1017.34 1017.37 1017.50 1017.74 1018.10 1018.57 1019.12 1019.74 1020.40 1021.08 1021.74 1022.37 1022.95 1023.46 1023.92 1024.33 1024.70 1025.05 1025.38 1025.73 1026.09 1026.47 1026.88 1027.29 1027.72 1028.13 1028.53
1024.23 1023.82 1023.34 1022.79 1022.21 1021.61 1020.99 1020.39 1019.82 1019.27 1018.76 1018.29 1017.87 1017.50 1017.20 1016.97 1016.83 1016.78 1016.85 1017.03 1017.34 1017.75 1018.27 1018.86 1019.51 1020.18 1020.85 1021.49 1022.09 1022.64 1023.14 1023.58 1023.99 1024.37 1024.74 1025.11 1025.51 1025.92 1026.37 1026.83 1027.31 1027.79 1028.25
1024.17 1023.77 1023.31 1022.78 1022.21 1021.61 1021.00 1020.39 1019.79 1019.21 1018.66 1018.15 1017.67 1017.25 1016.88 1016.58 1016.37 1016.26 1016.25 1016.36 1016.60 1016.96 1017.42 1017.97 1018.58 1019.23 1019.89 1020.55 1021.17 1021.74 1022.27 1022.75 1023.20 1023.62 1024.03 1024.45 1024.88 1025.34 1025.83 1026.35 1026.88 1027.41 1027.93
1023.96 1023.59 1023.15 1022.66 1022.12 1021.55 1020.96 1020.36 1019.77 1019.18 1018.61 1018.07 1017.55 1017.08 1016.66 1016.30 1016.02 1015.83 1015.75 1015.79 1015.95 1016.23 1016.62 1017.11 1017.67 1018.29 1018.93 1019.57 1020.20 1020.79 1021.35 1021.87 1022.35 1022.82 1023.28 1023.74 1024.23 1024.74 1025.28 1025.84 1026.42 1027.00 1027.57
1023.65 1023.31 1022.92 1022.47 1021.98 1021.45 1020.90 1020.33 1019.76 1019.18 1018.61 1018.05 1017.51 1017.00 1016.53 1016.12 1015.77 1015.51 1015.36 1015.32 1015.40 1015.59 1015.91 1016.32 1016.82 1017.38 1017.99 1018.61 1019.23 1019.83 1020.40 1020.95 1021.48 1021.99 1022.50 1023.02 1023.55 1024.11 1024.70 1025.31 1025.93 1026.55 1027.15
1023.29 1022.99 1022.63 1022.23 1021.79 1021.32 1020.82 1020.29 1019.75 1019.20 1018.63 1018.07 1017.52 1016.98 1016.48 1016.02 1015.62 1015.30 1015.07 1014.94 1014.94 1015.05 1015.28 1015.62 1016.04 1016.54 1017.09 1017.67 1018.27 1018.87 1019.46 1020.03 1020.60 1021.16 1021.72 1022.29 1022.88 1023.49 1024.12 1024.77 1025.42 1026.07 1026.69
1022.94 1022.66 1022.34 1021.99 1021.59 1021.17 1020.71 1020.23 1019.72 1019.19 1018.64 1018.09 1017.53 1016.97 1016.44 1015.94 1015.50 1015.12 1014.82 1014.63 1014.55 1014.58 1014.72 1014.97 1015.32 1015.75 1016.25 1016.79 1017.36 1017.95 1018.55 1019.15 1019.75 1020.35 1020.95 1021.58 1022.22 1022.87 1023.54 1024.22 1024.90 1025.56 1026.19
1022.61 1022.34 1022.05 1021.72 1021.37 1020.98 1020.56 1020.11 1019.63 1019.13 1018.59 1018.04 1017.48 1016.92 1016.36 1015.84 1015.35 1014.93 1014.58 1014.33 1014.17 1014.13 1014.20 1014.37 1014.65 1015.02 1015.46 1015.96 1016.51 1017.09 1017.69 1018.31 1018.94 1019.58 1020.24 1020.91 1021.59 1022.29 1022.99 1023.69 1024.38 1025.05 1025.68
1022.30 1022.03 1021.74 1021.43 1021.10 1020.74 1020.34 1019.92 1019.46 1018.97 1018.45 1017.91 1017.34 1016.77 1016.21 1015.66 1015.15 1014.69 1014.30 1013.99 1013.79 1013.68 1013.68 1013.79 1014.01 1014.32 1014.71 1015.18 1015.71 1016.28 1016.90 1017.54 1018.20 1018.88 1019.58 1020.29 1021.01 1021.74 1022.46 1023.18 1023.87 1024.54 1025.17
Thickness
5696 5694 5691 5690 5689 5688 5686 5684 5683 5682 5681 5681 5680 5681 5681 5680 5679 5678 5678 5677 5676 5676 5675 5673 5671 5670 5669 5668 5666 5665 5664 5663 5659 5655 5653 5652 5649 5647 5645 5643 5642 5640 5637
5694 5693 5690 5689 5687 5686 5684 5682 5681 5680 5679 5678 5678 5678 5678 5677 5677 5676 5674 5673 5673 5672 5672 5671 5670 5667 5666 5665 5663 5662 5660 5660 5657 5652 5650 5648 5646 5644 5642 5640 5639 5637 5635
5692 5690 5689 5687 5686 5684 5682 5681 5679 5678 5676 5675 5675 5674 5674 5673 5673 5673 5672 5671 5670 5669 5668 5667 5666 5665 5664 5662 5660 5659 5657 5655 5653 5650 5647 5644 5642 5640 5638 5636 5635 5633 5631
5689 5687 5686 5685 5684 5682 5680 5679 5677 5675 5674 5673 5672 5671 5670 5669 5669 5669 5669 5668 5666 5665 5664 5663 5662 5661 5660 5658 5656 5655 5653 5651 5648 5646 5643 5641 5638 5636 5634 5632 5631 5630 5627
5687 5685 5684 5683 5682 5679 5677 5675 5674 5672 5671 5670 5669 5667 5666 5665 5665 5665 5664 5663 5663 5661 5660 5659 5657 5655 5653 5652 5651 5650 5648 5646 5644 5642 5639 5638 5635 5631 5630 5628 5626 5625 5624
5685 5682 5681 5679 5677 5675 5673 5671 5670 5668 5667 5666 5664 5663 5662 5661 5659 5657 5657 5658 5658 5657 5655 5654 5652 5649 5647 5644 5642 5642 5641 5641 5640 5638 5636 5634 5632 5629 5625 5623 5621 5620 5619
5682 5680 5677 5676 5673 5671 5669 5668 5665 5664 5663 5661 5660 5659 5658 5656 5653 5651 5650 5652 5653 5653 5652 5649 5647 5644 5642 5641 5638 5635 5634 5632 5632 5633 5631 5630 5628 5626 5622 5619 5617 5615 5613
5679 5677 5675 5672 5670 5668 5666 5663 5662 5661 5659 5656 5655 5654 5653 5651 5648 5646 5645 5647 5648 5647 5646 5645 5642 5640 5637 5636 5634 5632 5631 5629 5626 5625 5625 5625 5622 5620 5617 5615 5613 5610 5608
5675 5673 5671 5669 5666 5664 5662 5660 5658 5656 5654 5652 5651 5649 5648 5646 5643 5641 5640 5642 5642 5642 5641 5639 5637 5634 5630 5627 5627 5626 5625 5623 5620 5618 5616 5615 5613 5611 5609 5607 5605 5604 5603
5671 5669 5668 5666 5663 5660 5659 5657 5654 5652 5649 5647 5646 5645 5644 5643 5639 5636 5634 5637 5637 5636 5635 5632 5628 5626 5623 5621 5621 5620 5619 5617 5615 5613 5611 5609 5607 5605 5602 5601 5600 5599 5599
5667 5665 5663 5661 5659 5656 5654 5652 5650 5647 5644 5643 5641 5640 5640 5638 5634 5631 5629 5631 5631 5630 5628 5626 5623 5618 5616 5614 5614 5614 5612 5610 5610 5608 5607 5605 5602 5600 5598 5596 5595 5593 5593
5662 5659 5657 5656 5654 5651 5649 5647 5645 5642 5640 5638 5636 5635 5634 5633 5630 5626 5624 5623 5623 5623 5622 5620 5617 5612 5609 5607 5606 5605 5603 5602 5603 5602 5601 5599 5597 5595 5593 5591 5589 5588 5587
5656 5654 5652 5651 5648 5646 5644 5642 5640 5637 5635 5634 5632 5631 5630 5628 5625 5621 5618 5616 5615 5615 5615 5611 5608 5604 5602 5601 5599 5597 5596 5596 5596 5595 5595 5593 5592 5590 5587 5584 5583 5581 5580
5651 5649 5647 5646 5643 5641 5639 5637 5635 5633 5631 5629 5627 5626 5625 5623 5621 5618 5614 5611 5608 5606 5605 5602 5599 5596 5595 5594 5592 5591 5590 5591 5590 5589 5588 5586 5584 5582 5580 5578 5576 5574 5574
5646 5644 5642 5640 5637 5635 5632 5631 5629 5628 5626 5623 5622 5621 5620 5618 5616 5612 5609 5608 5605 5602 5598 5596 5594 5592 5590 5589 5588 5587 5585 5584 5582 5581 5580 5579 5577 5575 5573 5571 5569 5568 5568
5640 5639 5636 5634 5631 5629 5626 5624 5621 5619 5617 5615 5614 5613 5613 5610 5607 5604 5601 5599 5595 5593 5590 5590 5589 5587 5585 5584 5583 5581 5579 5578 5576 5575 5573 5572 5570 5569 5567 5565 5563 5561 5561
5634 5632 5630 5628 5626 5623 5621 5619 5617 5613 5610 5608 5606 5604 5603 5601 5599 5596 5593 5590 5586 5584 5584 5585 5584 5583 5580 5578 5577 5575 5574 5572 5569 5568 5566 5565 5564 5563 5560 5558 5556 5554 5553
5627 5624 5622 5620 5618 5617 5615 5614 5612 5610 5607 5606 5602 5598 5596 5594 5591 5588 5585 5581 5580 5578 5579 5580 5579 5577 5574 5572 5571 5569 5567 5565 5562 5561 5560 5558 5556 5555 5553 5551 5549 5547 5545
5620 5618 5615 5613 5611 5610 5608 5606 5605 5603 5602 5601 5599 5595 5590 5586 5583 5580 5577 5578 5578 5576 5574 5573 5572 5570 5568 5566 5564 5562 5560 5558 5556 5554 5552 5550 5548 5547 5546 5544 5542 5538 5535
5612 5608 5605 5605 5603 5602 5601 5599 5597 5596 5595 5593 5592 5589 5585 5580 5579 5576 5573 5573 5572 5571 5569 5568 5566 5564 5562 5559 5557 5554 5553 5551 5549 5547 5545 5542 5540 5538 5537 5535 5533 5531 5528
5604 5601 5596 5596 5595 5594 5593 5591 5590 5589 5588 5586 5584 5582 5576 5575 5574 5572 5569 5567 5566 5565 5564 5562 5560 5557 5555 5552 5550 5548 5546 5544 5542 5539 5537 5534 5532 5529 5527 5525 5523 5521 5519
5595 5593 5591 5589 5588 5587 5585 5584 5583 5582 5580 5578 5575 5572 5566 5566 5566 5565 5563 5562 5560 5558 5556 5554 5553 5550 5547 5545 5542 5540 5539 5537 5534 5531 5529 5526 5523 5521 5518 5516 5514 5511 5509
5586 5584 5583 5582 5580 5577 5575 5575 5573 5572 5571 5569 5567 5564 5560 5559 5558 5557 5556 5554 5552 5550 5548 5546 5544 5543 5540 5537 5534 5532 5531 5529 5526 5523 5520 5517 5514 5512 5510 5508 5505 5502 5500
5578 5576 5574 5572 5570 5569 5567 5566 5564 5562 5561 5559 5557 5555 5553 5551 5550 5548 5546 5545 5543 5541 5540 5538 5536 5534 5532 5529 5526 5523 5521 5518 5515 5513 5510 5508 5505 5503 5500 5499 5497 5495 5492
5568 5566 5564 5563 5561 5559 5558 5556 5554 5553 5551 5549 5548 5546 5545 5543 5541 5539 5537 5536 5534 5532 5530 5528 5526 5524 5522 5520 5517 5515 5512 5508 5505 5502 5500 5498 5496 5494 5492 5490 5488 5486 5483
5558 5556 5554 5552 5551 5549 5547 5545 5544 5542 5540 5539 5537 5536 5534 5532 5531 5529 5527 5525 5524 5522 5520 5518 5516 5514 5512 5510 5508 5505 5502 5499 5495 5492 5490 5489 5488 5486 5483 5481 5479 5477 5475